FW2444 Weather Reports


time (UTC)temp
C
wind
direction
speed
KPH
gust
KPH
rain 1hr
cm
rain 24hr
cm
rain mn
cm
humidity
%
barometer
mb
20260902141508 15 250 0.0 0.0 0.00 0.00 0.00 41 1016.8
20260902140008 15 250 0.0 0.0 0.00 0.00 0.00 43 1016.5
20260902134507 15 250 0.0 0.0 0.00 0.00 0.00 43 1016.3
20260902133011 14 250 0.0 0.0 0.00 0.00 0.00 47 1016.3
20260902131502 14 250 0.0 0.0 0.00 0.00 0.00 50 1016.4
20260902130107 14 250 0.0 0.0 0.00 0.00 0.00 51 1016.5
20260902124557 14 250 0.0 0.0 0.00 0.00 0.00 55 1016.8
20260902123057 14 250 0.0 0.0 0.00 0.00 0.00 56 1016.7
20260902121554 15 250 0.0 0.0 0.00 0.00 0.00 57 1016.7
20260902120052 15 250 0.0 0.0 0.00 0.00 0.00 56 1016.7
20260902114610 15 250 0.0 0.0 0.00 0.00 0.00 56 1016.7
20260902113051 15 250 0.0 0.0 0.00 0.00 0.00 55 1016.7
20260902111549 15 250 0.0 0.0 0.00 0.00 0.00 55 1016.8
20260902110059 15 250 0.0 0.0 0.00 0.00 0.00 56 1016.8
20260902104547 15 250 0.0 0.0 0.00 0.00 0.00 56 1016.7
20260902103058 15 250 0.0 0.0 0.00 0.00 0.00 57 1016.9
20260902101549 15 250 0.0 0.0 0.00 0.00 0.00 57 1017.0
20260902100045 15 250 0.0 0.0 0.00 0.00 0.00 57 1017.0
20260902094542 15 250 0.0 0.0 0.00 0.00 0.00 57 1017.1
20260902093042 15 250 0.0 0.0 0.00 0.00 0.00 57 1017.0
20260902091539 15 250 0.0 0.0 0.00 0.00 0.00 58 1017.0
20260902090037 16 250 0.0 0.0 0.00 0.00 0.00 57 1016.9
20260902084535 16 250 0.0 0.0 0.00 0.00 0.00 57 1017.1
20260902083038 16 250 0.0 0.0 0.00 0.00 0.00 57 1017.2
20260902081541 16 250 0.0 0.0 0.00 0.00 0.00 57 1017.3
20260902080045 16 250 0.0 0.0 0.00 0.00 0.00 57 1017.3
20260902074529 16 250 0.0 0.0 0.00 0.00 0.00 57 1017.2
20260902073031 16 250 0.0 0.0 0.00 0.00 0.00 57 1016.9
20260902071524 16 250 0.0 0.0 0.00 0.00 0.00 56 1016.7
20260902070021 17 250 0.0 0.0 0.00 0.00 0.00 56 1016.6
20260902064521 17 250 0.0 0.0 0.00 0.00 0.00 56 1016.6
20260902063021 17 250 0.0 0.0 0.00 0.00 0.00 55 1016.7
20260902061520 17 250 0.0 0.0 0.00 0.00 0.00 55 1016.7
20260902060019 17 250 0.0 0.0 0.00 0.00 0.00 52 1016.6
20260902054529 17 250 0.0 0.0 0.00 0.00 0.00 50 1016.5
20260902053019 18 250 0.0 0.0 0.00 0.00 0.00 49 1016.5
20260902051523 18 250 0.0 0.0 0.00 0.00 0.00 48 1016.5
20260902050018 18 250 0.0 0.0 0.00 0.00 0.00 47 1016.4
20260902044517 19 250 0.0 0.0 0.00 0.00 0.00 45 1016.4
20260902043017 19 250 0.0 0.0 0.00 0.00 0.00 44 1016.1
20260902041518 20 250 0.0 0.0 0.00 0.00 0.00 43 1016.1
20260902040018 20 250 0.0 0.0 0.00 0.00 0.00 41 1015.7
20260902034516 20 250 0.0 0.0 0.00 0.00 0.00 40 1015.5
20260902033015 21 250 0.0 0.0 0.00 0.00 0.00 40 1015.2
20260902031514 21 250 0.0 0.0 0.00 0.00 0.00 38 1015.2
20260902030017 21 250 0.0 0.0 0.00 0.00 0.00 36 1015.0
20260902024514 22 250 0.0 0.0 0.00 0.00 0.00 35 1014.9
20260902023032 22 250 0.0 0.0 0.00 0.00 0.00 34 1014.8
20260902021525 23 250 0.0 0.0 0.00 0.00 0.00 33 1014.8
20260902020010 24 250 0.0 0.0 0.00 0.00 0.00 29 1014.8
20260902014510 25 250 0.0 0.0 0.00 0.00 0.00 27 1014.9
20260902013010 25 250 0.0 0.0 0.00 0.00 0.00 27 1014.9
20260902011512 26 250 0.0 0.0 0.00 0.00 0.00 22 1014.9
20260902010008 26 250 0.0 0.0 0.00 0.00 0.00 24 1015.0
20260902004508 26 250 0.0 0.0 0.00 0.00 0.00 24 1015.0
20260902003007 27 250 0.0 0.0 0.00 0.00 0.00 27 1015.1
20260902001506 27 250 0.0 0.0 0.00 0.00 0.00 24 1015.2
20260902000008 28 250 0.0 0.0 0.00 0.00 0.00 26 1015.2
20260901234505 28 250 0.0 0.0 0.00 0.00 0.00 24 1015.2
20260901233005 28 250 0.0 0.0 0.00 0.00 0.00 22 1015.2
20260901231505 30 250 0.0 0.0 0.00 0.00 0.00 24 1015.2
20260901230003 30 250 0.0 0.0 0.00 0.00 0.00 24 1015.3
20260901224504 30 250 0.0 0.0 0.00 0.00 0.00 25 1015.4
20260901223004 30 250 0.0 0.0 0.00 0.00 0.00 26 1015.3
20260901221615 31 250 0.0 0.0 0.00 0.00 0.00 24 1015.4
20260901220130 31 250 0.0 0.0 0.00 0.00 0.00 19 1015.4
20260901214559 31 250 0.0 0.0 0.00 0.00 0.00 16 1015.5
20260901213116 31 250 0.0 0.0 0.00 0.00 0.00 13 1015.6
20260901211600 32 250 0.0 0.0 0.00 0.00 0.00 11 1015.8
20260901210101 31 250 0.0 0.0 0.00 0.00 0.00 14 1016.0
20260901204549 30 250 0.0 0.0 0.00 0.00 0.00 17 1016.1
20260901203100 30 250 0.0 0.0 0.00 0.00 0.00 19 1016.0
20260901201545 30 251 0.0 0.0 0.00 0.00 0.00 19 1016.4
20260901200045 30 251 0.0 0.0 0.00 0.00 0.00 20 1016.7
20260901194543 28 251 0.0 0.0 0.00 0.00 0.00 20 1016.9
20260901193049 29 250 0.0 0.0 0.00 0.00 0.00 20 1016.9
20260901191635 28 250 0.0 0.0 0.00 0.00 0.00 25 1017.1
20260901190031 27 250 0.0 0.0 0.00 0.00 0.00 28 1017.0
20260901184532 28 250 0.0 0.0 0.00 0.00 0.00 31 1017.0
20260901183037 27 250 0.0 0.0 0.00 0.00 0.00 35 1017.1
20260901181523 25 250 0.0 0.0 0.00 0.00 0.00 39 1017.3
20260901180019 24 250 0.0 0.0 0.00 0.00 0.00 43 1017.1
20260901174518 25 250 0.0 0.0 0.00 0.00 0.00 42 1017.2
20260901173016 23 250 0.0 0.0 0.00 0.00 0.00 43 1016.9
20260901171511 22 250 0.0 0.0 0.00 0.00 0.00 46 1016.9
20260901170008 22 250 0.0 0.0 0.00 0.00 0.00 48 1016.9
20260901164506 21 250 0.0 0.0 0.00 0.00 0.00 49 1016.9
20260901163005 21 250 0.0 0.0 0.00 0.00 0.00 50 1016.9
20260901161559 20 250 0.0 0.0 0.00 0.00 0.00 50 1016.9
20260901160101 19 250 0.0 0.0 0.00 0.00 0.00 50 1016.9
20260901154552 18 250 0.0 0.0 0.00 0.00 0.00 50 1016.7
20260901153049 18 250 0.0 0.0 0.00 0.00 0.00 52 1016.6
20260901151548 17 250 0.0 0.0 0.00 0.00 0.00 54 1016.5
20260901150047 17 250 0.0 0.0 0.00 0.00 0.00 55 1016.3
20260901144547 17 250 0.0 0.0 0.00 0.00 0.00 57 1016.3
20260901143048 16 250 0.0 0.0 0.00 0.00 0.00 58 1016.2